Location: Waldport
(44.4270°N, 124.0680°W)
Time: 14:26:00
(UTC-08:00)

Meteor 1-26 Rocket - Visible Passes

Search period start: 23 February 2018 00:00
Search period end: 05 March 2018 00:00
Orbit: 829 x 906 km, 81.3° (Epoch: 23 February)

Date Brightness Start Highest point End Pass type
(mag) Time Alt. Az. Time Alt. Az. Time Alt. Az.
23 Feb 7.2 04:06:46 10° ESE 04:09:47 14° E 04:12:46 10° NE visible
23 Feb 4.3 05:46:21 10° SSW 05:52:15 84° W 05:58:06 10° N visible
24 Feb 7.1 03:59:45 10° ESE 04:02:49 15° E 04:05:52 10° NE visible
24 Feb 4.3 05:39:24 10° SSW 05:45:19 82° W 05:51:10 10° N visible
25 Feb 7.1 03:52:45 10° ESE 03:55:52 15° E 03:58:58 10° NE visible
25 Feb 4.2 05:32:29 10° SSW 05:38:22 81° W 05:44:12 10° N visible
26 Feb 7.0 03:45:44 10° ESE 03:48:54 15° E 03:52:04 10° NE visible
26 Feb 4.2 05:25:33 10° SSW 05:31:26 80° W 05:37:16 10° N visible
27 Feb 7.0 03:38:44 10° ESE 03:41:57 15° E 03:45:10 10° NE visible
27 Feb 4.2 05:18:37 10° SSW 05:24:29 79° W 05:30:18 10° N visible
28 Feb 6.9 03:31:43 10° ESE 03:35:00 16° E 03:38:15 10° NE visible
28 Feb 4.2 05:11:41 10° SSW 05:17:33 78° W 05:23:21 10° N visible
01 Mar 6.9 03:24:43 10° ESE 03:28:03 16° E 03:31:21 10° NE visible
01 Mar 4.2 05:04:45 10° SSW 05:10:36 77° W 05:16:24 10° N visible
02 Mar 6.8 03:17:43 10° ESE 03:21:05 16° E 03:24:26 10° NE visible
02 Mar 4.2 04:57:49 10° SSW 05:03:40 75° W 05:09:26 10° N visible
03 Mar 6.8 03:10:43 10° ESE 03:14:08 16° E 03:17:32 10° NE visible
03 Mar 4.2 04:52:24 19° SSW 04:56:43 74° WNW 05:02:29 10° N visible
04 Mar 6.7 03:04:10 11° ESE 03:07:11 16° E 03:10:37 10° NE visible
04 Mar 4.1 04:46:35 28° SSW 04:49:47 73° WNW 04:55:32 10° N visible
